Location: Rometta
(44.2000°N, 10.0500°E)
Time: 22:57:27
(UTC+00:00)

DMSP B5D1-3 - Pass Details

Date: 20 January 2021
Orbit: 767 x 780 km, 98.5° (Epoch: 04 March)

Event Time Altitude Azimuth Distance (km) Brightness Sun altitude
Exits shadow 18:01:29 14° 22° (NNE) 2,019 6.4 -19.1°
Maximum altitude 18:05:47 63° 102° (ESE) 855 4.4 -19.9°
Drops below altitude 10° 18:10:48 10° 183° (S) 2,303 7.1 -20.8°
Sets 18:13:08 0° 187° (S) 3,227 7.9 -21.2°
